Flight Briefing for CPX438

Departure Arrival
Philadelphia International Airport (KPHL)
Click to view FAA NOTAMS
Chicago/Rockford International Airport (KRFD)
Click to view FAA NOTAMS
Departure Time Arrival Time
N/A N/A
Aircraft Distance
B757-200SF 643nm
Departure METAR Arrival METAR
KPHL 181554Z 11005KT 10SM SCT060 BKN080 BKN140 06/M09 A3032 RMK AO2 SLP266 T00561094 KRFD 181601Z 32005KT 10SM BKN015 03/M02 A3040 RMK AO2 T00281017
Suggested Route
PTW SARAA RAV PSB J60 JOT QUOTE


View recent IFR Routes data
Notes



Charts and Procedures

Charts for KPHL
No chart available
Charts for KRFD
No chart available

Windy.com Weather Map